[[{"header":{"parameterUnit":"m.s-1","parameterCategory":1,"la1":30.2991,"la2":30.254,"lo1":-89.0895,"lo2":-89.0444,"dy":0.0017,"dx":0.0017,"nx":28,"ny":28,"refTime":"2025-08-04T09:00:00:Z","depth":0,"parameterNumber":2,"parameterNumberName":"U-component_of_WINDS"},"data":[0,0,0,0,0,0,0,0,0,0,0,0,0,0,0,0,0,0,0,0,0,0,0,0,0,0,0,0,0,0,0,0,0,0,0,0,0,0,0,0,0,0,0,0,0,0,0,0,0,0,0,0,0,0,0,0,0,0,-2.3373,-2.3372,0,-2.3276,-2.3275,-2.3274,-2.3218,-2.3217,-2.3217,-2.3217,-2.3111,-2.3108,-2.3105,0,0,0,0,0,0,0,0,0,0,0,0,0,-2.3503,-2.3501,-2.3373,-2.3372,-2.3371,-2.3276,-2.3275,-2.3273,-2.3218,-2.3217,-2.3217,-2.3217,-2.3112,-2.3108,-2.3105,0,0,0,0,0,0,0,0,0,0,0,0,0,-2.343,-2.35,-2.3373,-2.3332,-2.3327,-2.3276,-2.3275,-2.3273,-2.3218,-2.3217,-2.3217,-2.3217,-2.3113,-2.3109,-2.3105,-2.3086,0,0,-2.3093,-2.3091,0,0,0,0,0,0,0,0,-2.3434,-2.3425,-2.3339,-2.3334,-2.3329,-2.3259,-2.3281,-2.321,-2.3218,-2.3259,-2.3217,-2.3217,-2.316,-2.3152,-2.3134,-2.3081,-2.3077,-2.3092,-2.309,-2.3088,-2.3087,0,0,0,0,0,0,0,-2.3439,-2.3429,-2.3334,-2.3338,-2.3332,-2.3315,-2.3305,-2.3268,-2.3212,-2.3255,-2.3251,-2.3241,-2.3157,-2.3138,-2.3131,-2.3075,-2.3092,-2.3089,-2.3086,-2.3085,-2.2999,-2.3,0,0,0,0,0,0,-2.3452,-2.3434,-2.3337,-2.3331,-2.3382,-2.3313,-2.3301,-2.3281,-2.3212,-2.3202,-2.3241,-2.3238,-2.3145,-2.3136,-2.3127,-2.3099,-2.3088,-2.3084,-2.3082,-2.2999,-2.2999,-2.3,0,0,0,0,0,0,-2.3455,-2.3444,-2.3341,-2.3381,-2.3367,-2.3311,-2.3289,-2.328,-2.3261,-2.3202,-2.3191,-2.3233,-2.3144,-2.3133,-2.3097,-2.3095,-2.3083,-2.3079,-2.2999,-2.2999,-2.3,-2.3045,0,0,0,0,0,0,-2.3459,-2.3445,-2.3439,-2.3382,-2.3365,-2.3315,-2.3289,-2.3278,-2.3255,-2.3251,-2.3191,-2.318,-2.3143,-2.3103,-2.3093,-2.3089,-2.3076,-2.2999,-2.2999,-2.2999,-2.3043,-2.3046,-2.3049,0,0,0,0,0,-2.3464,-2.3455,-2.344,-2.3428,-2.3357,-2.3315,-2.3305,-2.3265,-2.3255,-2.3247,-2.3209,-2.3182,-2.3097,-2.31,-2.3088,-2.3083,-2.2999,-2.2999,-2.2999,-2.3042,-2.3046,-2.3049,0,0,0,0,0,0,-2.3511,-2.3447,-2.3429,-2.3401,-2.3365,-2.3306,-2.3295,-2.3271,-2.3234,-2.3231,-2.318,-2.3167,-2.3136,-2.3105,-2.311,-2.306,-2.3045,-2.3043,-2.3081,-2.3084,-2.3087,-2.3095,-2.3073,0,0,0,0,0,-2.3519,-2.3493,-2.3437,-2.3418,-2.34,-2.3351,-2.3331,-2.3303,-2.3262,-2.3245,-2.3204,-2.3163,-2.3127,-2.3104,-2.3068,-2.3039,-2.3023,-2.3029,-2.3032,-2.3035,-2.3033,-2.3014,-2.3015,-2.3,-2.3,-2.3,0,0,-2.3534,-2.3495,-2.3481,-2.3426,-2.3394,-2.3366,-2.3338,-2.3309,-2.3287,-2.324,-2.3204,-2.3173,-2.3123,-2.309,-2.3074,-2.3064,-2.3034,-2.3036,-2.3038,-2.3035,-2.3014,-2.3016,-2.3017,-2.3001,-2.3001,-2.3001,0,0,-2.3546,-2.3516,-2.3496,-2.3465,-2.3418,-2.3385,-2.338,-2.3325,-2.3303,-2.3267,-2.3231,-2.3202,-2.3141,-2.3107,-2.3082,-2.3081,-2.3054,-2.307,-2.3086,-2.3067,-2.3069,-2.3069,-2.3067,-2.3068,-2.3069,-2.3069,-2.3069,0,-2.357,-2.3528,-2.3488,-2.3461,-2.3437,-2.3396,-2.3374,-2.3345,-2.3288,-2.3271,-2.3262,-2.3184,-2.3148,-2.3106,-2.3106,-2.3087,-2.3078,-2.3076,-2.3072,-2.3072,-2.3072,-2.307,-2.307,-2.3071,-2.3071,-2.3071,-2.3071,0,-2.3559,-2.353,-2.3519,-2.3467,-2.3442,-2.3418,-2.3372,-2.335,-2.3325,-2.3292,-2.3254,-2.321,-2.3163,-2.3151,-2.3125,-2.3104,-2.31,-2.3082,-2.3066,-2.3077,-2.3074,-2.3072,-2.3074,-2.3074,-2.3073,-2.3072,0,0,-2.3598,-2.3524,-2.3521,-2.3496,-2.3441,-2.3417,-2.339,-2.3346,-2.3328,-2.3289,-2.3264,-2.3214,-2.3197,-2.3168,-2.3137,-2.3122,-2.3122,-2.3105,-2.3103,-2.3109,-2.3095,-2.3108,-2.3107,-2.3104,-2.3104,-2.3104,-2.3098,0,-2.3601,-2.3553,-2.3516,-2.3481,-2.3453,-2.3414,-2.339,-2.3352,-2.3321,-2.329,-2.3254,-2.3219,-2.32,-2.3183,-2.3165,-2.3126,-2.3118,-2.3126,-2.3077,-2.3076,-2.309,-2.3106,-2.312,-2.3117,-2.3097,-2.3097,-2.3097,0,-2.3598,-2.3563,-2.3527,-2.3474,-2.346,-2.344,-2.3397,-2.3369,-2.3324,-2.3302,-2.3271,-2.3239,-2.3206,-2.3194,-2.3146,-2.3152,-2.313,-2.3108,-2.3107,-2.3099,-2.3087,-2.3098,-2.3115,-2.3114,-2.3094,-2.3095,-2.3095,0,-2.3629,-2.3572,-2.3543,-2.3523,-2.3461,-2.3447,-2.342,-2.3376,-2.3352,-2.3313,-2.3296,-2.3253,-2.3229,-2.3196,-2.3153,-2.3148,-2.3109,-2.3093,-2.3088,-2.3089,-2.308,-2.3081,-2.3093,-2.3068,-2.3068,-2.3068,-2.3068,0,-2.3635,-2.3614,-2.3555,-2.3537,-2.3511,-2.3468,-2.3443,-2.3412,-2.3372,-2.3345,-2.3308,-2.3283,-2.3228,-2.3196,-2.3162,-2.3126,-2.3116,-2.3096,-2.3086,-2.3098,-2.3101,-2.3082,-2.3081,-2.3068,-2.3068,-2.3068,-2.3068,0,-2.3664,-2.3625,-2.359,-2.3535,-2.352,-2.3503,-2.3454,-2.3434,-2.3401,-2.3367,-2.3356,-2.3304,-2.3263,-2.3218,-2.3162,-2.3139,-2.3105,-2.3093,-2.3121,-2.3116,-2.3112,-2.3113,-2.3112,-2.3108,-2.3088,-2.3088,-2.3088,0,-2.3671,-2.3653,-2.3597,-2.3578,-2.3553,-2.3521,-2.3497,-2.3453,-2.3429,-2.3377,-2.3362,-2.3319,-2.3283,-2.322,-2.3175,-2.3131,-2.3117,-2.3119,-2.311,-2.3122,-2.3115,-2.3116,-2.3113,-2.3121,-2.3122,-2.3122,-2.3123,0,-2.3685,-2.3667,-2.3635,-2.3596,-2.3568,-2.3535,-2.3499,-2.3485,-2.3433,-2.3407,-2.3367,-2.3339,-2.3283,-2.324,-2.3191,-2.316,-2.3132,-2.3126,-2.3122,-2.3134,-2.315,-2.314,-2.3127,-2.3126,-2.3126,-2.3125,-2.3125,-2.3125,-2.3702,-2.3685,-2.3642,-2.3607,-2.3577,-2.3545,-2.3523,-2.3488,-2.3454,-2.3407,-2.3382,-2.3342,-2.3296,-2.3227,-2.3197,-2.3163,-2.3154,-2.3149,-2.3147,-2.3146,-2.3149,-2.3157,-2.3154,-2.3154,-2.3154,-2.3154,-2.3154,0,-2.3714,-2.3685,-2.3653,-2.3606,-2.3578,-2.3557,-2.3517,-2.3494,-2.346,-2.3421,-2.3386,-2.3339,-2.3297,-2.325,-2.3204,-2.3186,-2.3172,-2.3175,-2.3176,-2.3169,-2.3161,-2.3168,-2.3188,-2.3188,-2.3188,-2.3188,-2.3188,-2.3188,-2.3716,-2.3686,-2.3662,-2.3615,-2.3585,-2.3548,-2.3526,-2.3495,-2.3464,-2.3414,-2.338,-2.335,-2.3307,-2.3258,-2.3218,-2.3205,-2.3189,-2.3196,-2.3179,-2.3172,-2.3169,-2.3166,-2.3173,-2.3194,-2.3194,-2.3189,-2.3189,-2.3189]},{"header":{"parameterUnit":"m.s-1","parameterCategory":1,"la1":30.2991,"la2":30.254,"lo1":-89.0895,"lo2":-89.0444,"dy":0.0017,"dx":0.0017,"nx":28,"ny":28,"refTime":"2025-08-04T09:00:00:Z","depth":0,"parameterNumber":3,"parameterNumberName":"V-component_of_WINDS"},"data":[0,0,0,0,0,0,0,0,0,0,0,0,0,0,0,0,0,0,0,0,0,0,0,0,0,0,0,0,0,0,0,0,0,0,0,0,0,0,0,0,0,0,0,0,0,0,0,0,0,0,0,0,0,0,0,0,0,0,0.1358,0.1357,0,0.1282,0.1281,0.128,0.1256,0.1257,0.1257,0.1257,0.1172,0.1169,0.1166,0,0,0,0,0,0,0,0,0,0,0,0,0,0.1475,0.1473,0.1358,0.1357,0.1356,0.1282,0.1281,0.128,0.1256,0.1257,0.1257,0.1258,0.1172,0.1169,0.1166,0,0,0,0,0,0,0,0,0,0,0,0,0,0.1414,0.1472,0.1358,0.1335,0.1333,0.1282,0.1281,0.128,0.1256,0.1257,0.1257,0.1258,0.1173,0.117,0.1166,0.113,0,0,0.1154,0.1152,0,0,0,0,0,0,0,0,0.1417,0.1409,0.134,0.1337,0.1334,0.1279,0.1291,0.1229,0.1256,0.1285,0.1257,0.1258,0.1206,0.12,0.1184,0.1126,0.1122,0.1153,0.1151,0.1149,0.1148,0,0,0,0,0,0,0,0.1422,0.1413,0.1328,0.1339,0.1335,0.1327,0.1319,0.1279,0.1243,0.1282,0.1281,0.1272,0.1205,0.1188,0.1182,0.1121,0.1153,0.115,0.1147,0.1146,0.1028,0.1028,0,0,0,0,0,0,0.1431,0.1416,0.133,0.1325,0.1378,0.1324,0.1315,0.1296,0.1244,0.1236,0.1272,0.1271,0.1194,0.1186,0.1179,0.1133,0.1149,0.1146,0.1143,0.1029,0.1028,0.1027,0,0,0,0,0,0,0.1433,0.1423,0.1333,0.137,0.1358,0.1322,0.13,0.1294,0.1277,0.1236,0.1228,0.1262,0.1195,0.1184,0.1143,0.113,0.1144,0.114,0.103,0.1029,0.1028,0.1041,0,0,0,0,0,0,0.1437,0.1424,0.1412,0.137,0.1356,0.1301,0.13,0.1292,0.1272,0.127,0.1224,0.1217,0.1194,0.1149,0.1139,0.1124,0.1137,0.1031,0.103,0.1028,0.1042,0.1041,0.104,0,0,0,0,0,0.1441,0.1417,0.1412,0.1401,0.1341,0.13,0.1292,0.1268,0.1271,0.1257,0.123,0.1218,0.1133,0.1145,0.1133,0.1117,0.1032,0.103,0.1028,0.1042,0.1041,0.104,0,0,0,0,0,0,0.1455,0.1411,0.1405,0.1367,0.1338,0.1296,0.1278,0.1268,0.1235,0.1235,0.1204,0.1194,0.1154,0.1132,0.1146,0.1079,0.1082,0.1078,0.1096,0.1094,0.1093,0.1099,0.1134,0,0,0,0,0,0.1455,0.1428,0.139,0.136,0.1346,0.1315,0.1296,0.1281,0.1248,0.1235,0.1205,0.1171,0.1137,0.1114,0.108,0.1039,0.1027,0.1022,0.1021,0.102,0.1017,0.0992,0.0989,0.1022,0.1022,0.1022,0,0,0.1452,0.1425,0.1409,0.1362,0.1338,0.1308,0.1304,0.1273,0.125,0.1229,0.1189,0.1165,0.1126,0.1084,0.1064,0.1064,0.1005,0.1018,0.1018,0.1015,0.099,0.0987,0.0984,0.1021,0.1021,0.1021,0,0,0.1432,0.141,0.1383,0.1359,0.1323,0.1302,0.1296,0.1255,0.124,0.12,0.1183,0.1154,0.1095,0.1068,0.1046,0.1016,0.1004,0.1006,0.1,0.0976,0.0974,0.0971,0.096,0.0956,0.1003,0.1003,0.1003,0,0.1433,0.139,0.1369,0.1339,0.1319,0.1301,0.1272,0.1249,0.1202,0.1187,0.1188,0.1115,0.1087,0.1038,0.1031,0.1014,0.1004,0.101,0.0976,0.0974,0.0971,0.0959,0.0955,0.1003,0.1003,0.1003,0.1003,0,0.1392,0.1363,0.1345,0.1304,0.1281,0.1251,0.1223,0.1202,0.1189,0.1168,0.1126,0.1092,0.105,0.1038,0.1023,0.0986,0.0987,0.0983,0.0984,0.0969,0.0957,0.0953,0.1004,0.1004,0.1003,0.1003,0,0,0.1378,0.1327,0.1321,0.1301,0.1261,0.1236,0.1205,0.1168,0.1149,0.1118,0.109,0.1041,0.1037,0.1012,0.0994,0.0974,0.0951,0.0971,0.097,0.0968,0.0907,0.091,0.0905,0.0943,0.0942,0.0942,0.091,0,0.1353,0.13,0.128,0.1235,0.1207,0.119,0.1163,0.1133,0.1112,0.1083,0.1059,0.1025,0.1022,0.1007,0.0986,0.0959,0.0938,0.0961,0.0914,0.0913,0.0924,0.09,0.0903,0.0874,0.0905,0.0905,0.0904,0,0.1315,0.1287,0.124,0.1203,0.119,0.1167,0.113,0.1104,0.1069,0.1055,0.1028,0.1012,0.0976,0.0981,0.093,0.0946,0.0926,0.0909,0.0907,0.0901,0.0907,0.0891,0.0865,0.086,0.0897,0.0898,0.0898,0,0.1309,0.1258,0.1224,0.1208,0.1164,0.1148,0.1128,0.1095,0.1073,0.104,0.1026,0.0988,0.0967,0.0938,0.0911,0.0917,0.0862,0.0865,0.0847,0.0848,0.0836,0.0837,0.0804,0.0824,0.0825,0.0825,0.0825,0,0.1282,0.1254,0.1221,0.1199,0.1167,0.1143,0.1111,0.109,0.106,0.1032,0.1014,0.0988,0.0955,0.0924,0.0903,0.0863,0.0854,0.084,0.0834,0.0841,0.0843,0.0826,0.0827,0.0823,0.0824,0.0824,0.0824,0,0.1269,0.1246,0.1207,0.117,0.1159,0.1137,0.1103,0.108,0.106,0.1025,0.1015,0.098,0.0943,0.0914,0.0864,0.085,0.0807,0.0802,0.082,0.0817,0.0801,0.0803,0.0756,0.0748,0.0775,0.0775,0.0775,0,0.1253,0.1231,0.1192,0.1174,0.1155,0.1126,0.1104,0.108,0.1058,0.1017,0.0999,0.0961,0.0929,0.0869,0.0838,0.08,0.0792,0.0779,0.0786,0.0793,0.079,0.0792,0.0789,0.0777,0.0777,0.0777,0.0777,0,0.1226,0.1216,0.1188,0.1155,0.1131,0.1104,0.1075,0.1061,0.103,0.1006,0.0969,0.0945,0.0895,0.0857,0.0816,0.0792,0.0778,0.0775,0.0769,0.0775,0.0786,0.0779,0.0816,0.0776,0.0776,0.0776,0.0776,0.0776,0.121,0.1191,0.116,0.1129,0.1106,0.108,0.1057,0.1034,0.1004,0.0963,0.095,0.0911,0.0876,0.082,0.0796,0.0763,0.0763,0.0754,0.0751,0.0749,0.075,0.0793,0.0756,0.0756,0.0756,0.0756,0.0756,0,0.1182,0.1162,0.1134,0.1097,0.1071,0.1064,0.1033,0.1011,0.0979,0.0948,0.0918,0.0875,0.0837,0.0804,0.0764,0.0745,0.0737,0.0735,0.0735,0.073,0.0753,0.0762,0.0742,0.0742,0.0742,0.0742,0.0742,0.0742,0.1165,0.1131,0.1117,0.107,0.1049,0.1014,0.0996,0.0971,0.0947,0.0901,0.0871,0.085,0.0818,0.0776,0.0741,0.0731,0.0717,0.0716,0.0705,0.0727,0.0728,0.073,0.0738,0.0713,0.0713,0.0684,0.0684,0.0684]}]]